Location: Arborea
(39.7744°N, 8.5819°E)
Time: 03:13:10
(UTC+00:00)

USA 229 - Pass Details

Date: 07 June 2022
Orbit: 938 x 1274 km, 63.4° (Epoch: 24 May)

Event Time Altitude Azimuth Distance (km) Brightness Sun altitude
Rises 22:44:45 0° 315° (NW) 4,055 7.5 -26.7°
Reaches altitude 10° 22:47:51 10° 304° (NW) 3,137 6.7 -26.8°
Maximum altitude 22:53:59 28° 250° (WSW) 2,157 5.1 -27.0°
Enters shadow 22:55:13 26° 235° (SW) 2,216 5.1 -27.0°
